Weather History for Chipley, FL

Change the Weather History Date:

Wednesday, February 27, 2013

  Actual Average (KMAI) Record (KMAI)
Temperature  
Mean Temperature 61 °F 57 °F  
Max Temperature 71 °F 69 °F 82 °F (2011)
Min Temperature 51 °F 45 °F 26 °F (2002)
Degree Days  
Heating Degree Days 4    
Month to date heating degree days  
Since 1 July heating degree days  
Cooling Degree Days 0    
Month to date cooling degree days  
Year to date cooling degree days  
Growing Degree Days 11 (Base 50)    
Moisture  
Dew Point 42 °F    
Average Humidity 55    
Maximum Humidity 76    
Minimum Humidity 31    
Precipitation  
Precipitation 0.00 in 0.17 in 1.09 in (2003)
Month to date precipitation 4.76  
Year to date precipitation 9.80  
Sea Level Pressure  
Sea Level Pressure 29.99 in    
Wind  
Wind Speed 3 mph (SW)    
Max Wind Speed 13 mph    
Max Gust Speed 18 mph    
Visibility 10 miles    
Events      
T = Trace of Precipitation, MM = Missing Value Source: NWS Daily Summary

Daily Weather History Graph

Daily Weather History Graph

Search for Another Location

Airport:

Trip Planner

Search our weather history database for the weather conditions in past years. The results will help you decide how hot, cold, wet, or windy it might be!

Date:

Astronomy

Feb. 27, 2013 Rise Set
Actual Time 6:10 AM CST 5:39 PM CST
Civil Twilight 5:46 AM CST 6:03 PM CST
Nautical Twilight 5:18 AM CST 6:32 PM CST
Astronomical Twilight 4:50 AM CST 6:59 PM CST
Moon 7:46 PM CST (2/27) 6:57 AM CST (2/27)
Length of Visible Light 12h 17m
Length of Day
11h 28m
Waning Gibbous, 96% of the Moon is Illuminated
Feb 27
Waning Gibbous
Mar 4
Last Quarter
Mar 11
New
Mar 19
First Quarter
Mar 27
Full

Hourly Weather History & Observations

Time (CST) Temp. Dew Point Humidity Pressure Visibility Wind Dir Wind Speed Gust Speed Precip Events Conditions
12:15 AM 53.6 °F 44.6 °F 72% 29.95 in 10.0 mi SW 3.5 mph - N/A   Clear
12:35 AM 53.6 °F 44.6 °F 72% 29.95 in 10.0 mi Calm Calm - N/A   Clear
12:55 AM 53.6 °F 44.6 °F 72% 29.95 in 10.0 mi SW 3.5 mph - N/A   Clear
1:15 AM 53.6 °F 44.6 °F 72% 29.95 in 10.0 mi South 3.5 mph - N/A   Clear
1:35 AM 53.6 °F 44.6 °F 72% 29.95 in 10.0 mi Calm Calm - N/A   Clear
1:55 AM 53.6 °F 44.6 °F 72% 29.95 in 10.0 mi Calm Calm - N/A   Clear
2:15 AM 53.6 °F 44.6 °F 72% 29.95 in 10.0 mi SSW 3.5 mph - N/A   Clear
2:35 AM 51.8 °F 44.6 °F 76% 29.94 in 10.0 mi Calm Calm - N/A   Clear
2:55 AM 51.8 °F 44.6 °F 76% 29.94 in 10.0 mi Calm Calm - N/A   Clear
3:15 AM 51.8 °F 44.6 °F 76% 29.95 in 10.0 mi Calm Calm - N/A   Clear
3:35 AM 51.8 °F 44.6 °F 76% 29.95 in 10.0 mi Calm Calm - N/A   Clear
3:55 AM 51.8 °F 44.6 °F 76% 29.96 in 10.0 mi Calm Calm - N/A   Clear
4:15 AM 51.8 °F 44.6 °F 76% 29.95 in 10.0 mi Calm Calm - N/A   Clear
4:35 AM 51.8 °F 44.6 °F 76% 29.96 in 10.0 mi Calm Calm - N/A   Clear
4:55 AM 51.8 °F 44.6 °F 76% 29.97 in 10.0 mi Calm Calm - N/A   Clear
5:15 AM 51.8 °F 44.6 °F 76% 29.97 in 10.0 mi Calm Calm - N/A   Clear
5:35 AM 53.6 °F 42.8 °F 67% 29.98 in 10.0 mi Calm Calm - N/A   Clear
5:55 AM 53.6 °F 41.0 °F 62% 29.97 in 10.0 mi NNE 3.5 mph - N/A   Clear
6:15 AM 53.6 °F 41.0 °F 62% 29.98 in 10.0 mi NNE 3.5 mph - N/A   Clear
6:55 AM 53.6 °F 39.2 °F 58% 29.99 in 10.0 mi NE 3.5 mph - N/A   Clear
7:15 AM 53.6 °F 39.2 °F 58% 30.00 in 10.0 mi Calm Calm - N/A   Clear
7:35 AM 53.6 °F 42.8 °F 67% 30.01 in 10.0 mi Calm Calm - N/A   Clear
7:55 AM 53.6 °F 42.8 °F 67% 30.01 in 10.0 mi SSE 3.5 mph - N/A   Clear
8:15 AM 55.4 °F 39.2 °F 54% 30.03 in 10.0 mi SSE 3.5 mph - N/A   Clear
8:35 AM 55.4 °F 37.4 °F 51% 30.03 in 10.0 mi SSE 4.6 mph - N/A   Clear
9:15 AM 57.2 °F 37.4 °F 48% 30.04 in 10.0 mi Calm Calm - N/A   Clear
9:35 AM 59.0 °F 37.4 °F 45% 30.05 in 10.0 mi South 4.6 mph - N/A   Clear
9:55 AM 60.8 °F 37.4 °F 42% 30.04 in 10.0 mi South 3.5 mph - N/A   Clear
10:15 AM 60.8 °F 37.4 °F 42% 30.05 in 10.0 mi Calm Calm - N/A   Clear
10:55 AM 64.4 °F 37.4 °F 37% 30.05 in 10.0 mi SW 4.6 mph - N/A   Clear
11:15 AM 64.4 °F 37.4 °F 37% 30.05 in 10.0 mi South 4.6 mph - N/A   Clear
11:35 AM 66.2 °F 37.4 °F 35% 30.04 in 10.0 mi SW 3.5 mph - N/A   Clear
11:55 AM 66.2 °F 37.4 °F 35% 30.03 in 10.0 mi SW 5.8 mph - N/A   Clear
12:15 PM 66.2 °F 37.4 °F 35% 30.02 in 10.0 mi SW 5.8 mph - N/A   Clear
12:35 PM 66.2 °F 37.4 °F 35% 30.02 in 10.0 mi SW 8.1 mph - N/A   Clear
12:55 PM 68.0 °F 37.4 °F 33% 30.01 in 10.0 mi SSW 6.9 mph - N/A   Clear
1:15 PM 68.0 °F 39.2 °F 35% 30.00 in 10.0 mi SW 5.8 mph - N/A   Clear
1:35 PM 68.0 °F 39.2 °F 35% 29.99 in 10.0 mi West 5.8 mph - N/A   Clear
2:35 PM 69.8 °F 39.2 °F 33% 29.97 in 10.0 mi WSW 5.8 mph - N/A   Clear
2:55 PM 69.8 °F 39.2 °F 33% 29.97 in 10.0 mi SSW 8.1 mph - N/A   Clear
3:15 PM 71.6 °F 39.2 °F 31% 29.96 in 10.0 mi WSW 8.1 mph - N/A   Clear
3:35 PM 69.8 °F 39.2 °F 33% 29.96 in 10.0 mi South 9.2 mph 16.1 mph N/A   Clear
3:55 PM 69.8 °F 41.0 °F 35% 29.96 in 10.0 mi South 11.5 mph 17.3 mph N/A   Clear
4:15 PM 69.8 °F 42.8 °F 38% 29.96 in 10.0 mi SSW 10.4 mph - N/A   Clear
4:35 PM 68.0 °F 42.8 °F 40% 29.96 in 10.0 mi SSW 12.7 mph 18.4 mph N/A   Clear
4:55 PM 66.2 °F 42.8 °F 43% 29.96 in 10.0 mi SSW 8.1 mph - N/A   Clear
5:15 PM 66.2 °F 42.8 °F 43% 29.97 in 10.0 mi SSW 9.2 mph 16.1 mph N/A   Clear
5:35 PM 66.2 °F 42.8 °F 43% 29.97 in 10.0 mi SSW 8.1 mph - N/A   Clear
5:55 PM 64.4 °F 37.4 °F 37% 29.97 in 10.0 mi SW 6.9 mph - N/A   Clear
6:15 PM 64.4 °F 37.4 °F 37% 29.98 in 10.0 mi SW 5.8 mph - N/A   Clear
6:35 PM 64.4 °F 39.2 °F 40% 29.98 in 10.0 mi SW 5.8 mph - N/A   Clear
6:55 PM 62.6 °F 41.0 °F 45% 29.99 in 10.0 mi SW 8.1 mph - N/A   Clear
7:15 PM 62.6 °F 39.2 °F 42% 30.00 in 10.0 mi SW 4.6 mph - N/A   Clear
7:35 PM 60.8 °F 41.0 °F 48% 29.99 in 10.0 mi SW 6.9 mph - N/A   Clear
8:15 PM 60.8 °F 44.6 °F 55% 30.00 in 10.0 mi SW 5.8 mph - N/A   Clear
8:35 PM 60.8 °F 44.6 °F 55% 30.01 in 10.0 mi SW 6.9 mph - N/A   Clear
8:55 PM 60.8 °F 44.6 °F 55% 30.01 in 10.0 mi SW 4.6 mph - N/A   Clear
9:15 PM 59.0 °F 46.4 °F 63% 30.02 in 10.0 mi SW 5.8 mph - N/A   Clear
9:35 PM 59.0 °F 46.4 °F 63% 30.02 in 10.0 mi SSW 3.5 mph - N/A   Clear
9:55 PM 59.0 °F 46.4 °F 63% 30.03 in 10.0 mi SW 4.6 mph - N/A   Clear
10:15 PM 57.2 °F 46.4 °F 67% 30.03 in 10.0 mi SW 3.5 mph - N/A   Mostly Cloudy
10:35 PM 57.2 °F 46.4 °F 67% 30.02 in 10.0 mi Calm Calm - N/A   Scattered Clouds
10:55 PM 57.2 °F 48.2 °F 72% 30.02 in 10.0 mi WSW 3.5 mph - N/A   Mostly Cloudy
11:15 PM 57.2 °F 48.2 °F 72% 30.03 in 10.0 mi NW 3.5 mph - N/A   Overcast
11:35 PM 59.0 °F 48.2 °F 67% 30.04 in 10.0 mi NNW 6.9 mph - N/A   Overcast
11:55 PM 59.0 °F 42.8 °F 55% 30.04 in 10.0 mi North 6.9 mph - N/A   Overcast